Location: Avon
(37.7514°N, 90.2235°W)
Time: 00:39:17
(UTC+00:00)

Explorer 7 - Pass Details

Date: 12 November 2024
Orbit: 456 x 598 km, 50.3° (Epoch: 03 December)

Event Time Altitude Azimuth Distance (km) Brightness Sun altitude
Exits shadow 09:46:24 11° 46° (NE) 1,752 9.9 -34.1°
Drops below altitude 10° 09:46:34 10° 47° (NE) 1,814 10.0 -34.1°
Sets 09:48:54 0° 51° (NE) 2,737 11.1 -33.6°
